{"data":{"norad_id":57365,"epoch":"2026-09-20T05:51:12.629952Z","epoch_age_seconds":146352,"freshness":"FRESH","line1":"1 57365U 23099AP  26263.24389618  .00000929  00000+0  43287-4 0  9996","line2":"2 57365  43.0008 222.9490 0001300 258.9555 101.1151 15.27570048175950","mean_motion":15.27570048,"eccentricity":0.00013,"inclination_deg":43.0008,"raan_deg":222.949,"arg_perigee_deg":258.9555,"mean_anomaly_deg":101.1151,"bstar":4.3287e-5,"rev_number":17595,"period_min":94.267362854184,"perigee_km":482.18693800316,"apogee_km":483.97085413614,"semimajor_km":6861.2158960697,"source":"CELESTRAK","updated_at":"2026-09-21T09:00:33.603684Z"}}